DateTimeUTC,F1_A11,F1_S11,BsB_S11,BsG_S11,BsR_S11,BbsB_S11,BbsG_S11,BbsR_S11,BaB_A11,BaG_A11,BaR_A11,Tu_S11,T_S11,Uu_S11,U_S11,P_S11,T1_A11
2021-07-17T11:00:00Z,00000200,20000000,,,,,,,0000.12,0000.08,-000.26,17.4,24.0,06.6,04.4,0674.6,30.9
2021-07-17T11:01:00Z,00000200,20000000,,,,,,,-000.09,0000.11,0000.36,17.4,24.0,06.6,04.4,0674.6,31.0
2021-07-17T11:02:00Z,00000200,20000000,,,,,,,0000.11,-000.12,-000.11,17.4,24.0,06.6,04.4,0674.7,30.9
2021-07-17T11:03:00Z,00000200,60000000,,,,,,,0000.40,0000.49,0000.35,17.4,24.0,06.6,04.4,0674.7,31.0
2021-07-17T11:04:00Z,00000200,40000000,0000.45,0000.38,0000.35,0000.69,0000.13,0000.17,0000.02,0000.13,-000.05,17.4,23.8,06.9,04.7,0675.7,30.9
2021-07-17T11:05:00Z,00000200,00000000,0000.89,0000.30,0000.49,0000.32,0000.23,0000.27,-000.26,0000.04,0000.01,17.5,23.8,07.0,04.8,0675.7,30.9
2021-07-17T11:06:00Z,00000200,00000000,0001.02,0000.48,0000.28,-000.25,0000.37,0000.14,0000.33,-000.11,0000.34,17.5,23.8,06.9,04.7,0675.7,30.9
2021-07-17T11:07:00Z,00000200,00000000,0000.69,0000.79,-000.07,0000.44,0000.24,0000.02,0000.61,0000.58,0000.40,17.5,23.8,06.9,04.7,0675.7,30.9
2021-07-17T11:08:00Z,00000200,00000000,0000.70,0000.52,0000.26,0000.32,0000.22,-000.00,0000.17,0000.27,0000.03,17.5,23.8,07.0,04.8,0675.7,30.9
2021-07-17T11:09:00Z,00000200,00000000,0000.84,0000.10,0000.43,0000.44,0000.16,0000.23,-000.09,-000.03,-000.16,17.5,23.8,07.2,04.9,0675.8,30.9
2021-07-17T11:10:00Z,00000200,00000000,0001.16,0000.78,0000.28,0000.16,0000.06,0000.37,0000.34,0000.62,0000.24,17.5,23.7,07.1,04.8,0675.8,30.9
2021-07-17T11:11:00Z,00000200,00000000,0000.88,0000.38,0000.40,0000.30,0000.12,-000.01,0000.16,-000.28,0000.24,17.5,23.7,07.2,04.9,0675.7,30.9
2021-07-17T11:12:00Z,00000200,00000000,0001.05,0000.22,0000.16,0000.31,0000.09,0000.17,0000.03,0000.20,-000.17,17.5,23.7,07.1,04.8,0675.7,30.9
2021-07-17T11:13:00Z,00000200,00000000,0000.55,0000.40,0000.43,0000.70,0000.35,0000.21,0000.25,0000.35,0000.22,17.5,23.7,07.1,04.8,0675.7,30.9
2021-07-17T11:14:00Z,00000200,00000000,0000.74,0000.66,0000.21,-000.33,0000.01,0000.06,0000.21,0000.01,0000.16,17.5,23.7,07.2,04.9,0675.7,30.9
2021-07-17T11:15:00Z,00000200,00000000,0000.61,0000.42,0000.43,0000.11,-000.05,0000.22,0000.29,0000.10,0000.01,17.5,23.7,07.2,04.9,0675.7,30.9
2021-07-17T11:16:00Z,00000200,00000000,0000.84,0000.49,0000.22,0000.46,0000.17,0000.37,0000.28,0000.05,0000.37,17.5,23.7,07.1,04.8,0675.6,30.9
2021-07-17T11:17:00Z,00000200,00000000,0000.69,0000.44,0000.45,0000.46,0000.05,0000.17,-000.11,0000.38,-000.29,17.5,23.7,07.1,04.8,0675.6,30.9
2021-07-17T11:18:00Z,00000200,00000000,0001.32,0000.58,0000.29,0000.24,0000.25,0000.16,0000.48,0000.21,0000.38,17.5,23.7,07.1,04.9,0675.7,30.9
2021-07-17T11:19:00Z,00000200,00000000,0000.67,0000.26,0000.64,0000.73,0000.07,-000.00,0000.25,-000.18,0000.22,17.5,23.7,07.1,04.8,0675.6,30.9
2021-07-17T11:20:00Z,00000200,00000000,0000.86,0000.44,0000.24,0000.94,0000.19,0000.29,-000.18,0000.34,0000.46,17.5,23.7,07.2,04.9,0675.6,30.9
2021-07-17T11:21:00Z,00000200,00000000,0000.99,0000.54,0000.48,0000.01,0000.02,0000.05,-000.06,0000.29,-000.01,17.6,23.8,07.0,04.7,0675.6,30.9
2021-07-17T11:22:00Z,00000200,00000000,0000.66,0000.68,0000.37,0000.88,0000.14,0000.35,0000.63,-000.05,-000.21,17.6,23.8,07.0,04.8,0675.6,30.9
2021-07-17T11:23:00Z,00000200,00000000,0001.17,0000.58,0000.61,0000.24,0000.07,0000.37,0000.02,0000.38,0000.36,17.6,23.8,06.9,04.7,0675.6,31.0
2021-07-17T11:24:00Z,00000200,00000000,0000.46,0000.47,0000.08,0000.19,0000.44,0000.27,0000.19,-000.07,-000.02,17.6,23.8,07.0,04.8,0675.6,31.0
2021-07-17T11:25:00Z,00000200,00000000,0001.25,0000.52,0000.13,0000.42,0000.18,-000.32,-000.03,0000.01,-000.05,17.6,23.8,06.9,04.8,0675.5,30.9
2021-07-17T11:26:00Z,00000200,00000000,0001.26,0000.33,0000.50,0000.21,0000.25,0000.27,0000.52,0001.03,0000.51,17.6,23.8,06.8,04.7,0675.6,30.9
2021-07-17T11:27:00Z,00000200,00000000,0001.36,0000.46,0000.21,0000.49,0000.06,0000.33,0000.15,-000.64,-000.23,17.6,23.8,07.2,04.9,0675.6,31.0
2021-07-17T11:28:00Z,00000200,00000000,0000.72,0000.59,0000.38,0000.16,0000.15,0000.13,0000.33,0000.76,0000.39,17.6,23.8,07.2,04.9,0675.7,30.9
2021-07-17T11:29:00Z,00000200,00000000,0000.57,0000.43,0000.29,0000.04,0000.06,0000.66,0000.15,0000.01,0000.16,17.6,23.7,07.4,05.0,0675.6,30.9
2021-07-17T11:30:00Z,00000200,00000000,0001.19,0000.28,0000.49,-000.01,0000.25,0000.15,0000.06,0000.33,0000.14,17.6,23.8,07.3,05.0,0675.7,30.9
2021-07-17T11:31:00Z,00000200,00000000,0000.37,0000.37,0000.53,0000.74,-000.15,0000.06,0000.34,0000.06,0000.02,17.6,23.8,07.2,04.9,0675.6,30.9
2021-07-17T11:32:00Z,00000200,00000000,0000.53,0000.39,0000.50,0000.35,0000.25,0000.05,-000.25,-000.12,-000.07,17.6,23.8,07.3,05.0,0675.6,30.9
2021-07-17T11:33:00Z,00000200,00000000,0000.49,0000.46,0000.52,0000.43,-000.11,0000.33,0001.07,0000.46,0000.83,17.6,23.8,07.3,05.0,0675.7,30.9
2021-07-17T11:34:00Z,00000200,00000000,0000.38,0000.25,0000.34,0000.45,0000.39,0000.19,-000.39,-000.18,-000.67,17.6,23.8,07.4,05.1,0675.6,30.9
2021-07-17T11:35:00Z,00000200,00000000,0000.35,0000.45,0000.18,0001.00,-000.11,0000.06,0000.16,0000.60,0000.65,17.6,23.7,07.3,05.0,0675.6,30.9
2021-07-17T11:36:00Z,00000200,00000000,0000.30,0000.35,0000.27,0000.24,0000.12,0000.24,0000.38,0000.12,-000.01,17.6,23.7,07.4,05.1,0675.6,30.9
2021-07-17T11:37:00Z,00000200,00000000,0000.85,0000.53,0000.39,0000.51,0000.42,0000.13,0000.26,0000.11,0000.13,17.6,23.7,07.5,05.1,0675.6,30.9
2021-07-17T11:38:00Z,00000200,00000000,0000.78,0000.50,0000.29,0000.20,0000.08,-000.02,0000.11,-000.10,-000.07,17.6,23.7,07.5,05.1,0675.6,30.9
2021-07-17T11:39:00Z,00000200,00000000,0001.24,0000.48,0000.27,0000.81,0000.14,-000.17,0000.39,0000.14,0000.55,17.6,23.7,07.3,05.0,0675.6,30.9
2021-07-17T11:40:00Z,00000200,00000000,0000.78,0000.41,0000.26,0000.23,0000.23,-000.21,-000.36,0000.33,-000.19,17.6,23.7,07.4,05.0,0675.6,31.0
2021-07-17T11:41:00Z,00000200,00000000,0000.41,0000.64,0000.38,0000.26,0000.22,0000.36,0000.16,0000.04,-000.12,17.6,23.8,07.2,04.9,0675.5,31.0
2021-07-17T11:42:00Z,00000200,00000000,0000.70,0000.19,0000.16,0000.59,-000.11,0000.16,0000.25,0000.06,0000.07,17.6,23.8,07.6,05.2,0675.5,30.9
2021-07-17T11:43:00Z,00000200,00000000,0000.36,0000.60,0000.33,0000.20,0000.26,0000.70,0000.56,0000.30,0000.53,17.6,23.8,07.5,05.1,0675.6,31.0
2021-07-17T11:44:00Z,00000200,00000000,0000.70,0000.59,0000.21,0000.35,0000.09,0000.09,-000.16,0000.35,0000.09,17.6,23.8,07.6,05.2,0675.5,31.0
2021-07-17T11:45:00Z,00000200,00000000,0001.09,0000.28,0000.60,-000.04,0000.56,0000.48,0000.19,0000.04,0000.13,17.6,23.8,07.5,05.2,0675.5,31.0
2021-07-17T11:46:00Z,00000200,00000000,0000.02,0000.64,0000.50,0000.56,0000.02,0000.31,0000.27,0000.20,0000.26,17.6,23.8,07.6,05.2,0675.5,31.0
2021-07-17T11:47:00Z,00000200,00000000,0000.37,0000.19,0000.18,0000.69,0000.44,-000.06,0000.02,0000.11,-000.11,17.6,23.8,07.5,05.2,0675.5,30.9
2021-07-17T11:48:00Z,00000200,00000000,0001.10,0000.45,0000.50,0000.71,0000.14,-000.16,0000.61,0000.45,0000.28,17.6,23.8,07.6,05.2,0675.5,30.9
2021-07-17T11:49:00Z,00000200,00000000,0000.95,0000.47,0000.27,0000.01,0000.06,0000.04,0000.30,0000.22,0000.14,17.6,23.7,07.8,05.4,0675.6,30.9
2021-07-17T11:50:00Z,00000200,00000000,0000.73,0000.77,0000.35,0000.43,0000.22,0000.32,-000.55,-000.53,-000.17,17.6,23.8,07.7,05.3,0675.5,30.9
2021-07-17T11:51:00Z,00000200,00000000,0000.84,0000.68,0000.29,-000.03,0000.08,0000.45,0000.43,0000.48,0000.24,17.6,23.8,07.6,05.2,0675.5,31.0
2021-07-17T11:52:00Z,00000200,00000000,0000.82,0000.51,0000.38,-000.27,-000.01,0000.30,0000.50,0000.51,0000.32,17.6,23.8,07.6,05.2,0675.5,31.0
2021-07-17T11:53:00Z,00000200,00000000,0000.68,0000.44,0000.38,0000.69,0000.07,0000.09,0000.10,-000.17,0000.04,17.6,23.8,07.8,05.4,0675.5,30.9
2021-07-17T11:54:00Z,00000200,00000000,0001.41,0000.29,0000.36,0000.59,0000.11,0000.23,0000.05,0000.06,-000.03,17.6,23.8,07.7,05.2,0675.5,30.9
2021-07-17T11:55:00Z,00000200,00000000,0000.92,0000.37,0000.60,0000.90,0000.26,0000.19,0000.37,0000.52,0000.41,17.6,23.8,07.8,05.3,0675.5,31.0
2021-07-17T11:56:00Z,00000200,00000000,0000.60,0000.60,0000.32,0000.16,0000.10,0000.44,0000.08,0000.20,0000.16,17.6,23.8,07.7,05.3,0675.5,30.9
2021-07-17T11:57:00Z,00000200,40000000,,,,,,,0000.09,-000.33,-000.00,17.7,23.8,07.6,05.2,0675.3,31.0
2021-07-17T11:58:00Z,00000200,60000000,,,,,,,-000.31,-000.03,-000.18,17.5,23.9,07.7,05.2,0674.4,30.9
2021-07-17T11:59:00Z,00000200,20000000,,,,,,,0000.54,0000.00,-000.02,17.5,24.0,07.7,05.1,0674.3,31.0
